Location: Asarope
(8.2500°N, 4.4833°E)
Time: 22:56:57
(UTC+00:00)

Cosmos 2228 Rocket - Pass Details

Date: 07 June 2020
Orbit: 619 x 651 km, 82.5° (Epoch: 10 July)

Event Time Altitude Azimuth Distance (km) Brightness Sun altitude
Rises 04:33:25 0° 345° (NNW) 2,945 6.7 -12.1°
Reaches altitude 10° 04:35:44 10° 338° (NNW) 2,040 5.8 -11.6°
Maximum altitude 04:40:02 42° 267° (W) 919 3.5 -10.6°
Drops below altitude 10° 04:44:20 10° 196° (SSW) 2,051 5.3 -9.7°
Sets 04:46:41 0° 189° (S) 2,962 6.2 -9.1°
